Other Public Products
Issued by NWS Charleston, SC

Current Version | Previous Version | Text Only | Print | Product List | Glossary Off
Versions: 1 2 3 4 5 6 7 8 9 10 11 12 13 14 15 16 17 18 19 20 21 22 23 24 25 26 27 28 29 30 31 32 33 34 35 36 37 38 39 40 41 42 43 44 45 46 47 48 49 50

053
FPUS82 KCHS 211125
OPUCHS

TEST...KCHS/KSAV Gateway Observations...TEST
National Weather Service Charleston SC
700 AM EDT THU SEP 21 2017

NOTE: "fair" indicates few or no clouds below 12,000 feet with no
significant weather and/or obstructions to visibility.

SCZ050-WAZ558-NCZ071-TXZ119-213-PAZ071-DCZ001-FLZ074-172-MI076-
NYZ176-178-MAZ016-IL014-TNZ027-NJZ106-GAZ044-MD014-211200-

...Gateway Observations for Charleston International...

CITY           SKY/WX    TMP DP  RH WIND       PRES   REMARKS
Chas Airport   PTCLDY    72  72 100 CALM      30.02R FOG
Seattle        CLOUDY    51  48  89 S6        29.86S
Charlotte      CLEAR     67  65  93 CALM      30.06R
Dallas DFW     CLOUDY    80  73  79 S18       29.90R
Dallas Love    MOCLDY    80  72  76 S14       29.92R
Philladelphia  MOCLDY    73  62  68 N9        30.03R
Wash National  PTCLDY    68  62  81 N7        30.05R
Baltimore      PTCLDY    63  62  97 CALM      30.04R
Miami          PTCLDY    83  76  79 CALM      29.94R HX  91
Detroit        CLOUDY    69  67  93 SE3       30.06S FOG
Newark         CLOUDY    73  63  70 N10       29.99R
Laguardia      CLOUDY    73  65  75 NW14      29.97R
J F K          CLOUDY    73  63  70 N16       29.97R
Boston Logan   CLOUDY    68  63  84 N25G35    29.95R
Ft. Lauderdale PTCLDY    81  78  91 CALM      29.93R
Chicago O`Hare CLOUDY    74  67  78 S6        29.96S
Chicago Midway CLOUDY    75  68  78 S7        29.96S
Houston Bush   PTCLDY    77  76  96 S3        29.94R
Houston Hobby  PTCLDY    80  76  87 CALM      29.93R
Nashville      CLEAR     70  68  93 CALM      30.08R
Atlanta        PTCLDY    70  67  90 NW5       30.07R

$$

GAZ044-118-TXZ119-213-NCZ071-DCZ001-MDZ014-506-PAZ021-071-NJZ106-
NYZ176-178-MAZ106-OHZ011-021-055-MIZ076-KYZ091-ILZ014-INZ047-
MNZ060-ONZ431-211200-

...Gateway Observations for Savannah International...

CITY           SKY/WX    TMP DP  RH WIND       PRES   REMARKS
Savannah Arpt  PTCLDY    71  70  96 CALM      30.03R
Atlanta        PTCLDY    70  67  90 NW5       30.07R
Charlotte      CLEAR     67  65  93 CALM      30.06R
Dallas DFW     CLOUDY    80  73  79 S18       29.90R
Houston Bush   PTCLDY    77  76  96 S3        29.94R
Wash National  PTCLDY    68  62  81 N7        30.05R
Wash Dulles    PTCLDY    62  60  93 CALM      30.06R
Baltimore      PTCLDY    63  62  97 CALM      30.04R
Philadelphia   MOCLDY    73  62  68 N9        30.03R
Newark         CLOUDY    73  63  70 N10       29.99R
Laguardia      CLOUDY    73  65  75 NW14      29.97R
J F K          CLOUDY    73  63  70 N16       29.97R
Boston         CLOUDY    68  63  84 N25G35    29.95R
Pittsburg      PTCLDY    63  62  97 CALM      30.11R
Akron          PTCLDY    64  61  90 SE3       30.11R
Cleveland      PTCLDY    67  63  87 CALM      30.11R
Cincinnati     PTCLDY    67  67 100 CALM      30.09R
Columbus       FOG       62  62 100 CALM      30.09S VSB 3/4
Detroit        CLOUDY    69  67  93 SE3       30.06S FOG
Chicago O`Hare CLOUDY    74  67  78 S6        29.96S
Minneapolis    CLEAR     56  51  84 CALM      29.99S
Indianapolis   CLOUDY    71  69  93 SE7       30.06R
Toronto Canada PTCLDY    63  59  88 NE3       30.11R

$$




USA.gov is the U.S. government's official web portal to all federal, state and local government web resources and services.